sat.trackr.live / text

‹ back to catalog

STARLINK-3688

NORAD 52310 · 2022-041BB

PAYLOAD ACTIVE UNKNOWN

§ Identity

Operator
Country
US
Launch date
2022-04-21
Launch site
AFETR
Launch vehicle
Mass (kg)
RCS (m²)

Purposes: comms

External: N2YO · Heavens-Above · Gunter

§ Orbital elements

Epoch: 2026-05-25T03:21:45.599904Z

Period
95.44 min
Inclination
53.2136°
Eccentricity
0.0001301
Mean motion
15.08838019 rev/d
Perigee alt
538.8 km
Apogee alt
540.6 km
Semi-major
6,917.9 km
B*
8.6827e-5
RAAN
105.9858°
Arg perigee
73.5228°
Mean anomaly
286.5907°
Rev number
22,740

§ Raw data

STARLINK-36881 52310U 22041BB  26145.14011111  .00001094  00000+0  86827-4 0  99962 52310  53.2136 105.9858 0001301  73.5228 286.5907 15.08838019227406

JSON: /api/v1/satellites/52310 · /tle

For live sub-satellite position, see the globe view (requires WebGL).

§ Visibility from observer

Set your observer location to see the next 7 days of passes ≥ 10°. The values pass through the URL so the page stays shareable.

No JS? Fill the form by hand. The geolocation button needs JavaScript.